WXM80 ListenWXM80 Stop

You find our weather info also at:

UK Metoffice

WeatherCloud

Weather Underground

Northeastern Weather Network

AWEKAS

Citizen Weather Observer Program (CWOP)

HAMweather, WeatherForYou, PWS Weather


Weather Underground History page Text

Daily Summary for January 22, 2017 Units:  Metric    English   Both
« Previous Day
Next Day »
Daily Weekly Monthly Yearly Custom
  High: Low: Average:
Temperature: 8.8 °C 5.2 °C 6.6 °C
Dew Point: 6.8 °C 4.6 °C 5.8 °C
Humidity: 97 % 86 % 95 %
Wind Speed: 22.9 km/h 0 km/h 6.1 km/h
Wind Gust: 32.2 km/h - -
Wind:- - ENE
Pressure: 1009.7 hPa 1004.6 hPa -
Precipitation: 0 mm    
Historical Graphs
 
 
Tabular Data for January 22, 2017
Time Temperature Dew Point Pressure Wind Wind Speed Wind Gust Humidity Rainfall Rate (Hourly)
00:04 7.2 °C 6.7 °C 1007.3 hPa Calm     97 % 0 mm
00:09 7.2 °C 6.7 °C 1007.3 hPa Calm     97 % 0 mm
00:14 7.2 °C 6.7 °C 1007.3 hPa WNW 0.3 km/h 1.9 km/h 97 % 0 mm
00:19 7.2 °C 6.7 °C 1007.3 hPa WNW 0.2 km/h 1.9 km/h 97 % 0 mm
00:24 7.1 °C 6.7 °C 1007.3 hPa Calm   1.9 km/h 97 % 0 mm
00:29 7.1 °C 6.7 °C 1007.3 hPa Calm     97 % 0 mm
00:34 7.1 °C 6.7 °C 1007.3 hPa WNW 0.6 km/h 5.6 km/h 97 % 0 mm
00:39 7.1 °C 6.7 °C 1007.3 hPa Calm     97 % 0 mm
00:44 7.1 °C 6.7 °C 1007 hPa Calm   1.9 km/h 97 % 0 mm
00:49 7.1 °C 6.7 °C 1007 hPa Calm     97 % 0 mm
00:54 7.1 °C 6.7 °C 1007 hPa Calm     97 % 0 mm
00:59 7.2 °C 6.7 °C 1007 hPa Calm     97 % 0 mm
01:05 7.2 °C 6.7 °C 1006.7 hPa Calm   1.9 km/h 97 % 0 mm
01:10 7.2 °C 6.7 °C 1007 hPa Calm     97 % 0 mm
01:15 7.2 °C 6.7 °C 1006.7 hPa Calm     97 % 0 mm
01:20 7.2 °C 6.7 °C 1007 hPa Calm     97 % 0 mm
01:25 7.2 °C 6.7 °C 1006.7 hPa Calm     97 % 0 mm
01:30 7.2 °C 6.7 °C 1006.7 hPa Calm     97 % 0 mm
01:35 7.1 °C 6.7 °C 1007 hPa West 0.2 km/h 1.9 km/h 97 % 0 mm
01:40 7.2 °C 6.7 °C 1007 hPa SSW 3.1 km/h 5.6 km/h 97 % 0 mm
01:45 7.2 °C 6.7 °C 1006.7 hPa Calm   1.9 km/h 97 % 0 mm
01:50 7.2 °C 6.7 °C 1006.7 hPa Calm     97 % 0 mm
01:55 7.2 °C 6.7 °C 1006.7 hPa SSW 0.2 km/h 1.9 km/h 97 % 0 mm
02:00 7.2 °C 6.7 °C 1007 hPa SSW 6.4 km/h 8 km/h 97 % 0 mm
02:05 7.2 °C 6.7 °C 1007 hPa SW 2.1 km/h 5.6 km/h 97 % 0 mm
02:10 7.2 °C 6.8 °C 1006.7 hPa WSW 1 km/h 3.7 km/h 97 % 0 mm
02:15 7.2 °C 6.8 °C 1006.7 hPa Calm   1.9 km/h 97 % 0 mm
02:20 7.2 °C 6.8 °C 1006.3 hPa Calm     97 % 0 mm
02:25 7.2 °C 6.8 °C 1006.7 hPa Calm   1.9 km/h 97 % 0 mm
02:30 7.2 °C 6.7 °C 1006.3 hPa Calm     97 % 0 mm
02:36 7.2 °C 6.8 °C 1006.3 hPa Calm     97 % 0 mm
02:41 7.2 °C 6.7 °C 1006.7 hPa SW 0.8 km/h 1.6 km/h 97 % 0 mm
02:46 7.2 °C 6.7 °C 1006.3 hPa Calm   1.9 km/h 97 % 0 mm
02:51 7.2 °C 6.7 °C 1006.3 hPa Calm   1.9 km/h 97 % 0 mm
02:56 7.2 °C 6.7 °C 1006.3 hPa Calm     97 % 0 mm
03:01 7.2 °C 6.7 °C 1006.3 hPa Calm     97 % 0 mm
03:06 7.2 °C 6.7 °C 1006.3 hPa Calm     97 % 0 mm
03:11 7.1 °C 6.7 °C 1006.3 hPa Calm     97 % 0 mm
03:16 7.1 °C 6.7 °C 1006.3 hPa SW 1.8 km/h 3.7 km/h 97 % 0 mm
03:21 7.1 °C 6.7 °C 1006.3 hPa Calm   1.6 km/h 97 % 0 mm
03:26 7.1 °C 6.6 °C 1006.7 hPa SW 1.6 km/h 5.6 km/h 97 % 0 mm
03:31 7.1 °C 6.6 °C 1006.3 hPa Calm     97 % 0 mm
03:36 7.1 °C 6.6 °C 1006.7 hPa Calm     97 % 0 mm
03:41 7.1 °C 6.6 °C 1006 hPa Calm   1.6 km/h 97 % 0 mm
03:46 7.1 °C 6.6 °C 1006 hPa Calm     97 % 0 mm
03:51 7.1 °C 6.6 °C 1005.6 hPa Calm     97 % 0 mm
03:56 7.1 °C 6.6 °C 1005.6 hPa Calm     97 % 0 mm
04:02 7 °C 6.6 °C 1005.3 hPa NE 1.4 km/h 3.7 km/h 97 % 0 mm
04:07 6.9 °C 6.4 °C 1005.3 hPa NE 2.4 km/h 5.6 km/h 97 % 0 mm
04:12 6.8 °C 6.4 °C 1005.3 hPa NE 1.3 km/h 3.7 km/h 97 % 0 mm
04:17 6.8 °C 6.3 °C 1005.3 hPa Calm   1.9 km/h 97 % 0 mm
04:22 6.7 °C 6.3 °C 1005.3 hPa NNE 0.8 km/h 7.4 km/h 97 % 0 mm
04:27 6.7 °C 6.2 °C 1005.6 hPa NNE 0.2 km/h 1.9 km/h 97 % 0 mm
04:32 6.6 °C 6.2 °C 1005.3 hPa NNE 1.8 km/h 3.7 km/h 97 % 0 mm
04:37 6.6 °C 6.1 °C 1005.3 hPa Calm     97 % 0 mm
04:42 6.6 °C 6.1 °C 1005.6 hPa Calm     97 % 0 mm
04:47 6.5 °C 6.1 °C 1005.3 hPa Calm     97 % 0 mm
04:52 6.5 °C 6.1 °C 1005.3 hPa Calm     97 % 0 mm
04:57 6.4 °C 6 °C 1005.6 hPa Calm     97 % 0 mm
05:02 6.4 °C 6 °C 1005.6 hPa Calm     97 % 0 mm
05:07 6.4 °C 6 °C 1005.6 hPa Calm     97 % 0 mm
05:12 6.4 °C 5.9 °C 1005.6 hPa Calm     97 % 0 mm
05:18 6.4 °C 5.9 °C 1005.3 hPa Calm     97 % 0 mm
05:23 6.4 °C 5.9 °C 1005.6 hPa Calm     97 % 0 mm
05:28 6.4 °C 5.9 °C 1005.6 hPa Calm     97 % 0 mm
05:33 6.4 °C 5.9 °C 1005.6 hPa Calm     97 % 0 mm
05:38 6.4 °C 6 °C 1005.6 hPa Calm     97 % 0 mm
05:43 6.4 °C 6 °C 1006 hPa Calm     97 % 0 mm
05:48 6.4 °C 6 °C 1005.6 hPa Calm   1.9 km/h 97 % 0 mm
05:53 6.4 °C 5.9 °C 1005.6 hPa NNE 2.3 km/h 3.7 km/h 97 % 0 mm
05:58 6.3 °C 5.9 °C 1005.6 hPa Calm   1.9 km/h 97 % 0 mm
06:03 6.3 °C 5.8 °C 1005.6 hPa Calm     97 % 0 mm
06:08 6.3 °C 5.8 °C 1005.6 hPa Calm     97 % 0 mm
06:13 6.2 °C 5.8 °C 1006 hPa NNE 0.2 km/h 1.9 km/h 97 % 0 mm
06:18 6.2 °C 5.7 °C 1006 hPa Calm     97 % 0 mm
06:23 6.1 °C 5.7 °C 1006 hPa Calm     97 % 0 mm
06:28 6.1 °C 5.7 °C 1006 hPa Calm     97 % 0 mm
06:33 6.1 °C 5.6 °C 1006 hPa Calm     97 % 0 mm
06:38 6 °C 5.6 °C 1006 hPa Calm     97 % 0 mm
06:44 6 °C 5.6 °C 1006.3 hPa Calm     97 % 0 mm
06:49 5.9 °C 5.5 °C 1006.3 hPa Calm     97 % 0 mm
06:54 5.9 °C 5.5 °C 1006.3 hPa Calm     97 % 0 mm
06:59 5.9 °C 5.5 °C 1006.3 hPa Calm     97 % 0 mm
07:04 5.9 °C 5.5 °C 1006.3 hPa Calm     97 % 0 mm
07:09 5.9 °C 5.5 °C 1006.3 hPa Calm     97 % 0 mm
07:14 5.9 °C 5.5 °C 1006.3 hPa Calm     97 % 0 mm
07:19 6 °C 5.6 °C 1006.7 hPa Calm     97 % 0 mm
07:24 6 °C 5.6 °C 1006.3 hPa Calm     97 % 0 mm
07:29 6.1 °C 5.6 °C 1006.3 hPa Calm     97 % 0 mm
07:34 6.1 °C 5.6 °C 1006 hPa Calm     97 % 0 mm
07:39 6.2 °C 5.7 °C 1006 hPa NNE 0.8 km/h 3.7 km/h 97 % 0 mm
07:44 6.2 °C 5.8 °C 1006 hPa Calm     97 % 0 mm
07:49 6.2 °C 5.8 °C 1006 hPa Calm     97 % 0 mm
07:54 6.2 °C 5.8 °C 1006 hPa NNE 0.2 km/h   97 % 0 mm
07:59 6.3 °C 5.8 °C 1006.3 hPa Calm     97 % 0 mm
08:04 6.3 °C 5.8 °C 1006 hPa NNE 2.3 km/h 3.7 km/h 97 % 0 mm
08:09 6.3 °C 5.9 °C 1006.3 hPa NNE 2.4 km/h 3.7 km/h 97 % 0 mm
08:14 6.4 °C 6 °C 1006 hPa Calm   1.9 km/h 97 % 0 mm
08:19 6.4 °C 6 °C 1006.3 hPa NNE 2.1 km/h 5.6 km/h 97 % 0 mm
08:24 6.4 °C 6 °C 1006 hPa NE 1.3 km/h 5.6 km/h 97 % 0 mm
08:29 6.4 °C 5.9 °C 1005.6 hPa NE 1 km/h 3.2 km/h 97 % 0 mm
08:34 6.3 °C 5.9 °C 1006 hPa Calm     97 % 0 mm
08:39 6.3 °C 5.8 °C 1006 hPa NE 0.8 km/h 1.9 km/h 97 % 0 mm
08:44 6.1 °C 5.7 °C 1006 hPa ENE 3.7 km/h 5.6 km/h 97 % 0 mm
08:49 6 °C 5.6 °C 1005.6 hPa ENE 4.7 km/h 6.4 km/h 97 % 0 mm
08:54 6 °C 5.6 °C 1005.6 hPa ENE 1.8 km/h 4.8 km/h 97 % 0 mm
08:59 6 °C 5.6 °C 1005.6 hPa ENE 5.6 km/h 7.4 km/h 97 % 0 mm
09:04 5.9 °C 5.5 °C 1005.6 hPa NE 5.3 km/h 9.3 km/h 97 % 0 mm
09:09 5.9 °C 5.4 °C 1006 hPa ENE 3.1 km/h 5.6 km/h 97 % 0 mm
09:14 5.9 °C 5.4 °C 1006 hPa NE 4.8 km/h 7.4 km/h 97 % 0 mm
09:20 5.9 °C 5.4 °C 1006 hPa ENE 5.5 km/h 7.4 km/h 97 % 0 mm
09:25 5.9 °C 5.5 °C 1006 hPa ENE 3.9 km/h 6.4 km/h 97 % 0 mm
09:30 5.9 °C 5.5 °C 1006.3 hPa ENE 3.9 km/h 5.6 km/h 97 % 0 mm
09:35 6.1 °C 5.6 °C 1006.3 hPa NE 6.3 km/h 8 km/h 97 % 0 mm
09:40 6.1 °C 5.6 °C 1006.3 hPa ENE 4.7 km/h 7.4 km/h 97 % 0 mm
09:45 6.1 °C 5.6 °C 1006.3 hPa ENE 5 km/h 9.3 km/h 97 % 0 mm
09:50 6.1 °C 5.7 °C 1006.7 hPa ENE 4.8 km/h 7.4 km/h 97 % 0 mm
09:55 6.1 °C 5.7 °C 1006.3 hPa East 3.2 km/h 7.4 km/h 97 % 0 mm
10:00 6.1 °C 5.6 °C 1006.3 hPa ENE 5.1 km/h 7.4 km/h 97 % 0 mm
10:05 5.9 °C 5.5 °C 1006.3 hPa ENE 6.3 km/h 8 km/h 97 % 0 mm
10:10 5.8 °C 5.4 °C 1006.3 hPa ENE 5.5 km/h 11.1 km/h 97 % 0 mm
10:15 5.7 °C 5.3 °C 1006.3 hPa ENE 6.1 km/h 11.1 km/h 97 % 0 mm
10:20 5.7 °C 5.3 °C 1006.3 hPa NE 3.9 km/h 7.4 km/h 97 % 0 mm
10:25 5.7 °C 5.3 °C 1006.7 hPa ENE 5.5 km/h 6.4 km/h 97 % 0 mm
10:30 5.7 °C 5.3 °C 1006.7 hPa ENE 5.8 km/h 8 km/h 97 % 0 mm
10:35 5.7 °C 5.3 °C 1006.7 hPa ENE 1.9 km/h 5.6 km/h 97 % 0 mm
10:40 5.8 °C 5.3 °C 1006.7 hPa NNE 2.7 km/h 4.8 km/h 97 % 0 mm
10:46 5.9 °C 5.4 °C 1006.7 hPa ENE 4.7 km/h 7.4 km/h 97 % 0 mm
10:51 5.9 °C 5.4 °C 1006.7 hPa NNE 4.8 km/h 6.4 km/h 97 % 0 mm
10:56 5.9 °C 5.5 °C 1006.7 hPa NNE 3.9 km/h 7.4 km/h 97 % 0 mm
11:01 6.1 °C 5.6 °C 1006.7 hPa NNE 2.7 km/h 5.6 km/h 97 % 0 mm
11:06 6.1 °C 5.7 °C 1006.7 hPa NNE 8 km/h 13 km/h 97 % 0 mm
11:11 6.1 °C 5.7 °C 1006.3 hPa NE 6.3 km/h 9.3 km/h 97 % 0 mm
11:16 6.1 °C 5.7 °C 1006.3 hPa ENE 4.8 km/h 6.4 km/h 97 % 0 mm
11:21 6.1 °C 5.7 °C 1006.3 hPa NNE 3.5 km/h 6.4 km/h 97 % 0 mm
11:26 6.2 °C 5.7 °C 1006.3 hPa NNE 4.5 km/h 7.4 km/h 97 % 0 mm
11:31 6.2 °C 5.8 °C 1006.3 hPa NNE 4.7 km/h 7.4 km/h 97 % 0 mm
11:36 6.3 °C 5.8 °C 1006.3 hPa NNE 4.5 km/h 7.4 km/h 97 % 0 mm
11:41 6.2 °C 5.8 °C 1006.3 hPa ENE 4 km/h 9.3 km/h 97 % 0 mm
11:46 6.2 °C 5.6 °C 1006.3 hPa ENE 4 km/h 5.6 km/h 96 % 0 mm
11:51 6.1 °C 5.4 °C 1006 hPa ENE 4.2 km/h 6.4 km/h 96 % 0 mm
11:56 5.9 °C 5.3 °C 1006 hPa ENE 5.1 km/h 11.3 km/h 96 % 0 mm
12:01 5.8 °C 5.2 °C 1006 hPa ENE 6.3 km/h 14.8 km/h 96 % 0 mm
12:06 5.6 °C 5 °C 1006 hPa NE 2.4 km/h 7.4 km/h 96 % 0 mm
12:11 5.6 °C 4.9 °C 1006 hPa ENE 5.8 km/h 11.3 km/h 96 % 0 mm
12:17 5.4 °C 4.8 °C 1005.6 hPa NE 5 km/h 5.6 km/h 96 % 0 mm
12:22 5.4 °C 4.8 °C 1005.6 hPa ENE 7.4 km/h 8 km/h 96 % 0 mm
12:27 5.3 °C 4.7 °C 1005.6 hPa NE 7.6 km/h 11.1 km/h 96 % 0 mm
12:32 5.3 °C 4.7 °C 1005.6 hPa NE 4.5 km/h 7.4 km/h 96 % 0 mm
12:37 5.2 °C 4.6 °C 1005.3 hPa ENE 6.6 km/h 13 km/h 96 % 0 mm
12:42 5.2 °C 4.6 °C 1005.3 hPa ENE 5.5 km/h 11.1 km/h 96 % 0 mm
12:47 5.2 °C 4.6 °C 1005.3 hPa ENE 5.5 km/h 6.4 km/h 96 % 0 mm
12:52 5.3 °C 4.8 °C 1005.3 hPa ENE 3.7 km/h 9.3 km/h 97 % 0 mm
12:57 5.3 °C 4.9 °C 1005 hPa ENE 5.8 km/h 11.1 km/h 97 % 0 mm
13:02 5.3 °C 4.9 °C 1005 hPa ENE 5.5 km/h 8 km/h 97 % 0 mm
13:07 5.3 °C 4.9 °C 1005 hPa ENE 6.6 km/h 14.8 km/h 97 % 0 mm
13:12 5.3 °C 4.9 °C 1005 hPa ENE 5.6 km/h 8 km/h 97 % 0 mm
13:17 5.4 °C 4.9 °C 1005 hPa NE 5.8 km/h 11.1 km/h 97 % 0 mm
13:22 5.4 °C 5 °C 1005 hPa ENE 4 km/h 5.6 km/h 97 % 0 mm
13:27 5.6 °C 5.1 °C 1005 hPa East 3.5 km/h 7.4 km/h 97 % 0 mm
13:33 5.7 °C 5.2 °C 1005 hPa ENE 6.8 km/h 13 km/h 97 % 0 mm
13:38 5.7 °C 5.2 °C 1004.6 hPa NE 6.6 km/h 12.9 km/h 97 % 0 mm
13:43 5.8 °C 5.4 °C 1004.6 hPa ENE 5.3 km/h 9.7 km/h 97 % 0 mm
13:48 6 °C 5.6 °C 1004.6 hPa ENE 8.2 km/h 14.8 km/h 97 % 0 mm
13:53 6.1 °C 5.6 °C 1004.6 hPa NE 6.6 km/h 11.1 km/h 97 % 0 mm
13:58 6.1 °C 5.4 °C 1004.6 hPa East 7.7 km/h 11.1 km/h 96 % 0 mm
14:03 6.1 °C 5.4 °C 1004.6 hPa East 7.2 km/h 9.7 km/h 96 % 0 mm
14:08 6.1 °C 5.5 °C 1004.6 hPa ENE 5.8 km/h 9.3 km/h 96 % 0 mm
14:13 6.1 °C 5.5 °C 1004.6 hPa ENE 6.8 km/h 11.1 km/h 96 % 0 mm
14:15 6.1 °C 5.4 °C 1004.6 hPa ENE 6 km/h 11.1 km/h 96 % 0 mm
14:20 6.2 °C 5.6 °C 1004.6 hPa ENE 6.3 km/h 13 km/h 96 % 0 mm
14:25 6.1 °C 5.4 °C 1005 hPa ENE 3.5 km/h 7.4 km/h 95 % 0 mm
14:30 6.1 °C 5.3 °C 1005 hPa NE 3.7 km/h 5.6 km/h 95 % 0 mm
14:35 6 °C 5.3 °C 1005 hPa ENE 5.5 km/h 6.4 km/h 95 % 0 mm
14:40 6 °C 5.3 °C 1005 hPa NE 4.7 km/h 8 km/h 95 % 0 mm
14:45 6 °C 5.3 °C 1005.3 hPa ENE 5.5 km/h 7.4 km/h 95 % 0 mm
14:50 6 °C 5.3 °C 1005 hPa NE 3.2 km/h 9.3 km/h 95 % 0 mm
14:55 6 °C 5.3 °C 1005 hPa NE 4.7 km/h 8 km/h 95 % 0 mm
15:00 6 °C 5.3 °C 1005 hPa NE 6.1 km/h 9.3 km/h 95 % 0 mm
15:06 6.1 °C 5.3 °C 1005 hPa NE 6 km/h 7.4 km/h 95 % 0 mm
15:11 6 °C 5.3 °C 1005 hPa ENE 6.4 km/h 14.8 km/h 95 % 0 mm
15:16 6.1 °C 5.3 °C 1004.6 hPa NE 6 km/h 11.1 km/h 95 % 0 mm
15:21 6.1 °C 5.3 °C 1005 hPa ENE 6 km/h 9.3 km/h 95 % 0 mm
15:26 6.1 °C 5.3 °C 1005 hPa ENE 6.6 km/h 13 km/h 95 % 0 mm
15:31 6.2 °C 5.6 °C 1005 hPa ENE 4.8 km/h 11.1 km/h 96 % 0 mm
15:36 6.3 °C 5.7 °C 1005.3 hPa NE 6.1 km/h 11.3 km/h 96 % 0 mm
15:41 6.4 °C 5.7 °C 1005.3 hPa ENE 7.6 km/h 11.1 km/h 95 % 0 mm
15:46 6.4 °C 5.7 °C 1005.3 hPa ENE 4.5 km/h 7.4 km/h 95 % 0 mm
15:51 6.4 °C 5.7 °C 1005.3 hPa East 5.3 km/h 7.4 km/h 95 % 0 mm
15:56 6.5 °C 5.8 °C 1005.3 hPa ENE 4.8 km/h 8 km/h 95 % 0 mm
16:01 6.6 °C 5.8 °C 1005.6 hPa ENE 3.4 km/h 5.6 km/h 95 % 0 mm
16:06 6.6 °C 5.9 °C 1005.3 hPa ENE 4.3 km/h 8 km/h 95 % 0 mm
16:11 6.6 °C 5.9 °C 1005.3 hPa ENE 4.3 km/h 6.4 km/h 95 % 0 mm
16:16 6.6 °C 5.8 °C 1005.6 hPa ENE 5.1 km/h 7.4 km/h 95 % 0 mm
16:21 6.5 °C 5.8 °C 1005.6 hPa ENE 5.5 km/h 7.4 km/h 95 % 0 mm
16:26 6.4 °C 5.7 °C 1005.6 hPa ENE 5.6 km/h 8 km/h 95 % 0 mm
16:32 6.5 °C 5.8 °C 1005.6 hPa ENE 10.5 km/h 13 km/h 95 % 0 mm
16:37 6.4 °C 5.6 °C 1005.6 hPa East 4.3 km/h 7.4 km/h 94 % 0 mm
16:42 6.4 °C 5.5 °C 1005.6 hPa ENE 5 km/h 7.4 km/h 94 % 0 mm
16:47 6.3 °C 5.4 °C 1005.6 hPa East 6 km/h 11.1 km/h 94 % 0 mm
16:52 6.3 °C 5.6 °C 1006 hPa East 4.3 km/h 5.6 km/h 95 % 0 mm
16:57 6.3 °C 5.6 °C 1006 hPa East 1.9 km/h 4.8 km/h 95 % 0 mm
17:02 6.3 °C 5.6 °C 1006 hPa East 3.5 km/h 5.6 km/h 95 % 0 mm
17:07 6.3 °C 5.6 °C 1006.3 hPa ENE 4.3 km/h 7.4 km/h 95 % 0 mm
17:12 6.4 °C 5.7 °C 1006.3 hPa ENE 4.5 km/h 6.4 km/h 95 % 0 mm
17:17 6.3 °C 5.6 °C 1006.3 hPa East 3.4 km/h 5.6 km/h 95 % 0 mm
17:22 6.3 °C 5.6 °C 1006.3 hPa East 3.2 km/h 5.6 km/h 95 % 0 mm
17:27 6.3 °C 5.6 °C 1006.3 hPa East 4.3 km/h 5.6 km/h 95 % 0 mm
17:32 6.4 °C 5.7 °C 1006.3 hPa East 5.6 km/h 9.3 km/h 95 % 0 mm
17:37 6.4 °C 5.7 °C 1006.3 hPa ENE 4.2 km/h 7.4 km/h 95 % 0 mm
17:42 6.4 °C 5.7 °C 1006.3 hPa ENE 4.7 km/h 7.4 km/h 95 % 0 mm
17:47 6.4 °C 5.7 °C 1006.3 hPa ENE 2.9 km/h 4.8 km/h 95 % 0 mm
17:52 6.4 °C 5.7 °C 1006.3 hPa East 2.7 km/h 7.4 km/h 95 % 0 mm
17:57 6.5 °C 5.8 °C 1006 hPa East 3.9 km/h 9.3 km/h 95 % 0 mm
18:03 6.6 °C 5.7 °C 1006.3 hPa East 4.3 km/h 9.3 km/h 94 % 0 mm
18:08 6.6 °C 5.7 °C 1006 hPa East 9.8 km/h 13 km/h 94 % 0 mm
18:13 6.6 °C 5.7 °C 1006.3 hPa ENE 8.9 km/h 11.1 km/h 94 % 0 mm
18:18 6.6 °C 5.7 °C 1006.3 hPa East 5.1 km/h 7.4 km/h 94 % 0 mm
18:23 6.7 °C 5.8 °C 1006.3 hPa ENE 6.1 km/h 11.1 km/h 94 % 0 mm
18:28 6.7 °C 5.8 °C 1006.3 hPa East 8 km/h 11.3 km/h 94 % 0 mm
18:33 6.9 °C 6.1 °C 1006.3 hPa East 9.5 km/h 16.7 km/h 94 % 0 mm
18:38 7.2 °C 6.2 °C 1006.7 hPa NE 10.9 km/h 16.7 km/h 93 % 0 mm
18:43 7.4 °C 6.2 °C 1006.7 hPa ENE 9.3 km/h 13 km/h 92 % 0 mm
18:48 7.7 °C 6.5 °C 1006.7 hPa ENE 14.5 km/h 22.2 km/h 92 % 0 mm
18:53 8.1 °C 6.7 °C 1006.7 hPa East 15.3 km/h 22.2 km/h 91 % 0 mm
18:58 8.4 °C 6.7 °C 1007 hPa East 16.1 km/h 22.2 km/h 89 % 0 mm
19:03 8.6 °C 6.7 °C 1007 hPa East 16.3 km/h 22.5 km/h 88 % 0 mm
19:08 8.7 °C 6.7 °C 1007 hPa East 22.9 km/h 31.5 km/h 87 % 0 mm
19:13 8.8 °C 6.7 °C 1007 hPa East 20.9 km/h 29.6 km/h 87 % 0 mm
19:18 8.7 °C 6.7 °C 1007.3 hPa East 20.3 km/h 25.9 km/h 87 % 0 mm
19:23 8.6 °C 6.3 °C 1007.7 hPa ENE 17.4 km/h 22.5 km/h 86 % 0 mm
19:28 8.4 °C 6.3 °C 1007.3 hPa East 17.9 km/h 22.2 km/h 87 % 0 mm
19:33 8.3 °C 6.2 °C 1007.3 hPa East 19.8 km/h 25.9 km/h 87 % 0 mm
19:39 8.2 °C 6.3 °C 1007.7 hPa East 16.1 km/h 24.1 km/h 88 % 0 mm
19:44 8 °C 6.1 °C 1007.7 hPa ENE 16.6 km/h 22.2 km/h 88 % 0 mm
19:49 7.9 °C 6 °C 1007.7 hPa East 16.6 km/h 22.2 km/h 88 % 0 mm
19:54 7.8 °C 5.9 °C 1007.7 hPa East 19.3 km/h 25.7 km/h 88 % 0 mm
19:59 7.7 °C 5.9 °C 1007.7 hPa East 18.5 km/h 22.5 km/h 89 % 0 mm
20:04 7.6 °C 5.9 °C 1007.7 hPa East 16.1 km/h 25.7 km/h 89 % 0 mm
20:09 7.5 °C 6 °C 1008 hPa East 16.1 km/h 24.1 km/h 90 % 0 mm
20:14 7.5 °C 5.9 °C 1008 hPa East 19.3 km/h 24.1 km/h 90 % 0 mm
20:19 7.5 °C 5.9 °C 1008 hPa East 14.5 km/h 25.7 km/h 90 % 0 mm
20:24 7.5 °C 5.9 °C 1008 hPa East 19.3 km/h 25.7 km/h 90 % 0 mm
20:29 7.6 °C 6 °C 1007.7 hPa East 16.1 km/h 24.1 km/h 90 % 0 mm
20:34 7.6 °C 6 °C 1007.7 hPa East 19.3 km/h 29 km/h 90 % 0 mm
20:39 7.6 °C 6 °C 1007.7 hPa East 19.3 km/h 27.4 km/h 90 % 0 mm
20:44 7.6 °C 6 °C 1007.7 hPa East 20.9 km/h 25.7 km/h 90 % 0 mm
20:49 7.5 °C 5.9 °C 1007.7 hPa East 19.3 km/h 25.7 km/h 90 % 0 mm
20:54 7.4 °C 5.9 °C 1007.7 hPa East 16.1 km/h 25.7 km/h 90 % 0 mm
20:59 7.4 °C 5.9 °C 1008 hPa East 16.7 km/h 22.2 km/h 90 % 0 mm
21:04 7.3 °C 5.8 °C 1008.4 hPa East 17.1 km/h 22.2 km/h 90 % 0 mm
21:09 7.2 °C 5.7 °C 1008.4 hPa East 16.3 km/h 20.4 km/h 90 % 0 mm
21:14 7.2 °C 5.6 °C 1008.4 hPa ENE 15.6 km/h 18.5 km/h 90 % 0 mm
21:19 7.1 °C 5.6 °C 1008.4 hPa East 13.8 km/h 25.9 km/h 90 % 0 mm
21:24 7.1 °C 5.7 °C 1008.4 hPa East 18.5 km/h 22.2 km/h 91 % 0 mm
21:29 7.1 °C 5.7 °C 1008.4 hPa East 15 km/h 20.9 km/h 91 % 0 mm
21:34 7.1 °C 5.7 °C 1008.7 hPa East 19 km/h 24.1 km/h 91 % 0 mm
21:39 7 °C 5.6 °C 1008.7 hPa East 16.6 km/h 22.2 km/h 91 % 0 mm
21:44 7 °C 5.6 °C 1008.7 hPa ENE 19.5 km/h 24.1 km/h 91 % 0 mm
21:49 6.9 °C 5.6 °C 1008.7 hPa East 18 km/h 25.9 km/h 91 % 0 mm
21:54 6.9 °C 5.5 °C 1008.7 hPa NE 17.2 km/h 25.9 km/h 91 % 0 mm
21:59 6.8 °C 5.4 °C 1008.7 hPa East 16.9 km/h 22.2 km/h 91 % 0 mm
22:04 6.7 °C 5.3 °C 1008.7 hPa East 15.1 km/h 25.9 km/h 91 % 0 mm
22:10 6.7 °C 5.3 °C 1009 hPa ENE 14.5 km/h 20.4 km/h 91 % 0 mm
22:15 6.6 °C 5.2 °C 1008.7 hPa East 16.6 km/h 27.8 km/h 91 % 0 mm
22:20 6.6 °C 5.2 °C 1008.7 hPa ENE 18 km/h 20.9 km/h 91 % 0 mm
22:25 6.6 °C 5.4 °C 1008.7 hPa East 20.1 km/h 29.6 km/h 92 % 0 mm
22:30 6.6 °C 5.4 °C 1009 hPa East 22 km/h 25.9 km/h 92 % 0 mm
22:35 6.6 °C 5.4 °C 1009 hPa ESE 19.5 km/h 22.2 km/h 92 % 0 mm
22:40 6.6 °C 5.3 °C 1009 hPa East 16.9 km/h 24.1 km/h 92 % 0 mm
22:45 6.6 °C 5.5 °C 1009.4 hPa ESE 22.4 km/h 32.2 km/h 93 % 0 mm
22:50 6.5 °C 5.4 °C 1009.4 hPa East 19.2 km/h 22.2 km/h 93 % 0 mm
22:55 6.4 °C 5.4 °C 1009.4 hPa East 16.1 km/h 22.2 km/h 93 % 0 mm
23:00 6.4 °C 5.4 °C 1009.4 hPa East 18.8 km/h 25.9 km/h 93 % 0 mm
23:05 6.4 °C 5.3 °C 1009.4 hPa East 16.7 km/h 22.5 km/h 93 % 0 mm
23:06 6.4 °C 5.3 °C 1009.4 hPa ENE 17.9 km/h 24.1 km/h 93 % 0 mm
23:11 6.3 °C 5.3 °C 1009.4 hPa East 18.5 km/h 24.1 km/h 93 % 0 mm
23:16 6.3 °C 5.2 °C 1009.4 hPa East 16.7 km/h 22.5 km/h 93 % 0 mm
23:21 6.2 °C 5.3 °C 1009.4 hPa NE 17.9 km/h 22.5 km/h 94 % 0 mm
23:26 6.2 °C 5.3 °C 1009.4 hPa ENE 15.9 km/h 20.4 km/h 94 % 0 mm
23:31 6.2 °C 5.1 °C 1009.4 hPa ENE 14.6 km/h 22.2 km/h 93 % 0 mm
23:36 6.1 °C 5.1 °C 1009.4 hPa ENE 13.4 km/h 16.7 km/h 93 % 0 mm
23:41 6.1 °C 5.2 °C 1009.4 hPa ENE 13.7 km/h 16.7 km/h 94 % 0 mm
23:46 6.1 °C 5.2 °C 1009.4 hPa ENE 13.2 km/h 20.4 km/h 94 % 0 mm
23:51 6 °C 5.1 °C 1009.7 hPa ENE 15 km/h 20.4 km/h 94 % 0 mm
23:56 6 °C 5.1 °C 1009.4 hPa ENE 15.3 km/h 22.2 km/h 94 % 0 mm
Crab Meadow Weather
Compliments of Weather Underground - 3 mb

Script developed by  Jim McMurry - jmcmurry@mwt.net Adapted for the template by  Wim van der Kuil - Leuven-Template.eu

Weather Terms: Flash Flood Warning - Flash flooding is occurring, imminent or highly likely. A flash flood is a flood that occurs within 6 hours of excessive rainfall and that poses a threat to life and/or property. Ice jams and dam failures can also cause flash floods. These warnings are issued on a county by county basis by the local Weather Forecast Office in Upton and are generally in effect for up to 6 hours.